| time (UTC) | temp F | wind direction | speed MPH | gust MPH | rain 1hr in | rain 24hr in | rain mn in | humidity % | barometer mb |
| 20260904133007 | 72 | 125 | 2.0 | 7.0 | 0.00 | 0.00 | 0.00 | 35 | 1006.9 |
| 20260904131504 | 73 | 105 | 3.0 | 6.0 | 0.00 | 0.00 | 0.00 | 34 | 1006.7 |
| 20260904130008 | 73 | 82 | 5.0 | 8.0 | 0.00 | 0.00 | 0.00 | 33 | 1006.5 |
| 20260904124501 | 73 | 64 | 3.0 | 9.0 | 0.00 | 0.00 | 0.00 | 33 | 1006.2 |
| 20260904123100 | 73 | 59 | 4.0 | 8.0 | 0.00 | 0.00 | 0.00 | 33 | 1006.0 |
| 20260904121559 | 72 | 87 | 0.0 | 1.0 | 0.00 | 0.00 | 0.00 | 32 | 1005.9 |
| 20260904120105 | 73 | 123 | 0.0 | 1.0 | 0.00 | 0.00 | 0.00 | 31 | 1005.8 |
| 20260904114557 | 74 | 79 | 0.0 | 3.0 | 0.00 | 0.00 | 0.00 | 31 | 1005.8 |
| 20260904113053 | 73 | 105 | 0.0 | 3.0 | 0.00 | 0.00 | 0.00 | 31 | 1005.7 |
| 20260904111552 | 73 | 65 | 2.0 | 3.0 | 0.00 | 0.00 | 0.00 | 30 | 1005.4 |
| 20260904110048 | 74 | 108 | 2.0 | 7.0 | 0.00 | 0.00 | 0.00 | 28 | 1005.2 |
| 20260904104546 | 75 | 92 | 4.0 | 12.0 | 0.00 | 0.00 | 0.00 | 27 | 1005.1 |
| 20260904103042 | 75 | 79 | 5.0 | 9.0 | 0.00 | 0.00 | 0.00 | 26 | 1005.0 |
| 20260904101541 | 75 | 83 | 4.0 | 9.0 | 0.00 | 0.00 | 0.00 | 25 | 1004.9 |
| 20260904100039 | 75 | 83 | 5.0 | 8.0 | 0.00 | 0.00 | 0.00 | 25 | 1004.7 |
| 20260904094535 | 76 | 112 | 5.0 | 9.0 | 0.00 | 0.00 | 0.00 | 27 | 1004.7 |
| 20260904093034 | 76 | 98 | 3.0 | 7.0 | 0.00 | 0.00 | 0.00 | 22 | 1004.7 |
| 20260904091546 | 78 | 98 | 5.0 | 12.0 | 0.00 | 0.00 | 0.00 | 21 | 1004.6 |
| 20260904090028 | 80 | 101 | 6.0 | 10.0 | 0.00 | 0.00 | 0.00 | 22 | 1004.6 |
| 20260904084528 | 80 | 108 | 5.0 | 9.0 | 0.00 | 0.00 | 0.00 | 21 | 1004.7 |
| 20260904083030 | 82 | 97 | 6.0 | 18.0 | 0.00 | 0.00 | 0.00 | 19 | 1004.7 |
| 20260904081523 | 81 | 91 | 7.0 | 12.0 | 0.00 | 0.00 | 0.00 | 19 | 1004.8 |
| 20260904080019 | 79 | 100 | 4.0 | 7.0 | 0.00 | 0.00 | 0.00 | 19 | 1004.8 |
| 20260904074523 | 78 | 120 | 0.0 | 1.0 | 0.00 | 0.00 | 0.00 | 18 | 1004.9 |
| 20260904073019 | 78 | 119 | 0.0 | 1.0 | 0.00 | 0.00 | 0.00 | 16 | 1004.8 |
| 20260904071514 | 78 | 129 | 0.0 | 2.0 | 0.00 | 0.00 | 0.00 | 16 | 1004.8 |
| 20260904070010 | 79 | 140 | 1.0 | 4.0 | 0.00 | 0.00 | 0.00 | 16 | 1004.7 |
| 20260904064509 | 79 | 105 | 0.0 | 1.0 | 0.00 | 0.00 | 0.00 | 16 | 1004.7 |
| 20260904063022 | 80 | 99 | 0.0 | 1.0 | 0.00 | 0.00 | 0.00 | 16 | 1004.6 |
| 20260904061510 | 80 | 122 | 0.0 | 1.0 | 0.00 | 0.00 | 0.00 | 16 | 1004.6 |
| 20260904060008 | 81 | 98 | 1.0 | 5.0 | 0.00 | 0.00 | 0.00 | 16 | 1004.4 |
| 20260904054507 | 81 | 105 | 3.0 | 6.0 | 0.00 | 0.00 | 0.00 | 16 | 1004.3 |
| 20260904053007 | 82 | 99 | 2.0 | 7.0 | 0.00 | 0.00 | 0.00 | 16 | 1004.3 |
| 20260904051507 | 84 | 110 | 4.0 | 7.0 | 0.00 | 0.00 | 0.00 | 14 | 1004.4 |
| 20260904050005 | 85 | 139 | 4.0 | 11.0 | 0.00 | 0.00 | 0.00 | 14 | 1004.4 |
| 20260904044505 | 85 | 150 | 6.0 | 12.0 | 0.00 | 0.00 | 0.00 | 14 | 1004.4 |
| 20260904043004 | 85 | 155 | 4.0 | 11.0 | 0.00 | 0.00 | 0.00 | 14 | 1004.2 |
| 20260904041510 | 85 | 113 | 5.0 | 13.0 | 0.00 | 0.00 | 0.00 | 14 | 1004.2 |
| 20260904040103 | 85 | 167 | 6.0 | 11.0 | 0.00 | 0.00 | 0.00 | 14 | 1004.0 |
| 20260904034502 | 85 | 178 | 6.0 | 12.0 | 0.00 | 0.00 | 0.00 | 13 | 1004.0 |
| 20260904033002 | 86 | 171 | 5.0 | 9.0 | 0.00 | 0.00 | 0.00 | 13 | 1003.9 |
| 20260904031502 | 86 | 224 | 7.0 | 12.0 | 0.00 | 0.00 | 0.00 | 13 | 1003.8 |
| 20260904030001 | 86 | 191 | 8.0 | 15.0 | 0.00 | 0.00 | 0.00 | 12 | 1003.7 |
| 20260904024700 | 86 | 165 | 5.0 | 11.0 | 0.00 | 0.00 | 0.00 | 12 | 1003.7 |
| 20260904023059 | 87 | 145 | 4.0 | 14.0 | 0.00 | 0.00 | 0.00 | 12 | 1003.5 |
| 20260904021557 | 88 | 150 | 6.0 | 10.0 | 0.00 | 0.00 | 0.00 | 12 | 1003.5 |
| 20260904020058 | 88 | 165 | 6.0 | 11.0 | 0.00 | 0.00 | 0.00 | 11 | 1003.7 |
| 20260904014600 | 90 | 152 | 5.0 | 15.0 | 0.00 | 0.00 | 0.00 | 11 | 1003.6 |
| 20260904013056 | 91 | 212 | 7.0 | 15.0 | 0.00 | 0.00 | 0.00 | 10 | 1003.7 |
| 20260904011556 | 91 | 181 | 8.0 | 20.0 | 0.00 | 0.00 | 0.00 | 10 | 1003.7 |
| 20260904010056 | 91 | 159 | 11.0 | 20.0 | 0.00 | 0.00 | 0.00 | 10 | 1003.7 |
| 20260904004553 | 92 | 186 | 6.0 | 21.0 | 0.00 | 0.00 | 0.00 | 10 | 1003.7 |
| 20260904003053 | 92 | 226 | 7.0 | 19.0 | 0.00 | 0.00 | 0.00 | 9 | 1003.9 |
| 20260904001552 | 92 | 196 | 11.0 | 17.0 | 0.00 | 0.00 | 0.00 | 10 | 1003.9 |
| 20260904000051 | 93 | 200 | 13.0 | 23.0 | 0.00 | 0.00 | 0.00 | 10 | 1004.0 |
| 20260903234550 | 93 | 267 | 8.0 | 17.0 | 0.00 | 0.00 | 0.00 | 10 | 1004.0 |
| 20260903233049 | 93 | 208 | 6.0 | 12.0 | 0.00 | 0.00 | 0.00 | 11 | 1004.1 |
| 20260903231551 | 93 | 149 | 10.0 | 18.0 | 0.00 | 0.00 | 0.00 | 10 | 1004.3 |
| 20260903230049 | 93 | 152 | 11.0 | 19.0 | 0.00 | 0.00 | 0.00 | 10 | 1004.4 |
| 20260903224546 | 92 | 129 | 9.0 | 20.0 | 0.00 | 0.00 | 0.00 | 10 | 1004.5 |
| 20260903223042 | 92 | 191 | 8.0 | 20.0 | 0.00 | 0.00 | 0.00 | 11 | 1004.8 |
| 20260903221547 | 92 | 115 | 10.0 | 19.0 | 0.00 | 0.00 | 0.00 | 11 | 1004.9 |
| 20260903220039 | 92 | 136 | 12.0 | 23.0 | 0.00 | 0.00 | 0.00 | 11 | 1005.0 |
| 20260903214536 | 92 | 131 | 11.0 | 23.0 | 0.00 | 0.00 | 0.00 | 11 | 1005.1 |
| 20260903213035 | 92 | 136 | 10.0 | 19.0 | 0.00 | 0.00 | 0.00 | 11 | 1005.4 |
| 20260903211634 | 92 | 136 | 10.0 | 20.0 | 0.00 | 0.00 | 0.00 | 11 | 1005.4 |
| 20260903210032 | 92 | 201 | 9.0 | 17.0 | 0.00 | 0.00 | 0.00 | 12 | 1005.4 |
| 20260903204530 | 91 | 121 | 8.0 | 13.0 | 0.00 | 0.00 | 0.00 | 12 | 1005.6 |
| 20260903203039 | 90 | 179 | 8.0 | 17.0 | 0.00 | 0.00 | 0.00 | 12 | 1005.8 |
| 20260903201524 | 90 | 103 | 9.0 | 16.0 | 0.00 | 0.00 | 0.00 | 13 | 1006.1 |
| 20260903200039 | 89 | 153 | 11.0 | 19.0 | 0.00 | 0.00 | 0.00 | 13 | 1006.2 |
| 20260903194535 | 89 | 155 | 11.0 | 19.0 | 0.00 | 0.00 | 0.00 | 12 | 1006.4 |
| 20260903193026 | 89 | 110 | 12.0 | 19.0 | 0.00 | 0.00 | 0.00 | 13 | 1006.6 |
| 20260903191518 | 88 | 70 | 11.0 | 20.0 | 0.00 | 0.00 | 0.00 | 13 | 1006.9 |
| 20260903190016 | 87 | 112 | 9.0 | 18.0 | 0.00 | 0.00 | 0.00 | 13 | 1007.1 |
| 20260903184512 | 86 | 145 | 11.0 | 16.0 | 0.00 | 0.00 | 0.00 | 14 | 1007.3 |
| 20260903183014 | 85 | 94 | 10.0 | 17.0 | 0.00 | 0.00 | 0.00 | 15 | 1007.6 |
| 20260903181508 | 84 | 146 | 8.0 | 17.0 | 0.00 | 0.00 | 0.00 | 16 | 1007.8 |
| 20260903180011 | 83 | 91 | 6.0 | 13.0 | 0.00 | 0.00 | 0.00 | 16 | 1008.0 |
| 20260903174504 | 83 | 63 | 7.0 | 13.0 | 0.00 | 0.00 | 0.00 | 16 | 1008.0 |
| 20260903173002 | 83 | 100 | 7.0 | 13.0 | 0.00 | 0.00 | 0.00 | 16 | 1008.1 |
| 20260903171600 | 81 | 121 | 5.0 | 11.0 | 0.00 | 0.00 | 0.00 | 17 | 1008.3 |
| 20260903170059 | 81 | 156 | 5.0 | 12.0 | 0.00 | 0.00 | 0.00 | 18 | 1008.3 |
| 20260903164602 | 80 | 96 | 7.0 | 11.0 | 0.00 | 0.00 | 0.00 | 18 | 1008.3 |
| 20260903163055 | 80 | 132 | 5.0 | 13.0 | 0.00 | 0.00 | 0.00 | 19 | 1008.2 |
| 20260903161555 | 79 | 110 | 7.0 | 12.0 | 0.00 | 0.00 | 0.00 | 19 | 1008.2 |
| 20260903160104 | 78 | 121 | 6.0 | 10.0 | 0.00 | 0.00 | 0.00 | 20 | 1008.4 |
| 20260903154553 | 77 | 124 | 5.0 | 11.0 | 0.00 | 0.00 | 0.00 | 20 | 1008.3 |
| 20260903153052 | 77 | 93 | 4.0 | 10.0 | 0.00 | 0.00 | 0.00 | 21 | 1008.3 |
| 20260903151555 | 76 | 77 | 4.0 | 11.0 | 0.00 | 0.00 | 0.00 | 22 | 1008.3 |
| 20260903150058 | 75 | 94 | 4.0 | 9.0 | 0.00 | 0.00 | 0.00 | 22 | 1008.2 |
| 20260903144650 | 75 | 113 | 4.0 | 9.0 | 0.00 | 0.00 | 0.00 | 23 | 1008.3 |
| 20260903143049 | 74 | 91 | 4.0 | 8.0 | 0.00 | 0.00 | 0.00 | 23 | 1008.0 |
| 20260903141547 | 73 | 96 | 3.0 | 7.0 | 0.00 | 0.00 | 0.00 | 23 | 1007.9 |
| 20260903140045 | 72 | 106 | 2.0 | 6.0 | 0.00 | 0.00 | 0.00 | 24 | 1007.8 |
| 20260903134544 | 72 | 96 | 1.0 | 5.0 | 0.00 | 0.00 | 0.00 | 23 | 1007.6 |